Weather Roundup
Issued by NWS

Home | Current Version | Previous Version | Text Only | Print | Product List | Glossary On
Versions: 1 2 3 4 5 6 7 8 9 10 11 12 13 14 15 16 17 18 19 20 21 22 23 24 25 26 27 28 29 30 31 32 33 34 35 36 37 38 39 40 41 42 43 44 45 46 47 48 49 50
000
NZUS93 KARX 010459
HRRWXR

CURRENT HOURLY OBSERVATIONS ACROSS
MUCH OF THE UPPER MISSISSIPPI VALLEY
NATIONAL WEATHER SERVICE LA CROSSE WI
1100 PM CST SAT FEB 28 2015


...SOUTHEAST MINNESOTA...


CITY           SKY/WX    TMP DP  RH WIND       PRES   REMARKS
ROCHESTER      LGT SNOW   9   3  77 S12       30.34F WCI  -6
ROCHESTER/MAYO CLOUDY    11   3  69 SE16G23   30.34F WCI  -6
WINONA         CLOUDY    14   3  62 S6        30.42S WCI   5
AUSTIN         LGT SNOW   9   5  85 S9        30.34F WCI  -5
ALBERT LEA     FLURRIES  12   9  85 S13       30.31F WCI  -3
DODGE CENTER   FLURRIES  10   7  85 S21       30.31F WCI  -9
PRESTON        MOCLDY     7   1  76 S9        30.37S WCI  -7
OWATONNA       CLOUDY    12   7  79 S16       30.31F WCI  -4
FARIBAULT      CLOUDY    12   7  79 S12       30.32F WCI  -2
$$

...ELSEWHERE IN MINNESOTA...


CITY           SKY/WX    TMP DP  RH WIND       PRES   REMARKS
MINNEAPOLIS    CLOUDY    13   4  67 S7        30.32F WCI   3
INTNL FALLS    NOT AVBL
DULUTH         NOT AVBL
RED WING       CLOUDY    14   3  62 SW6       30.36F WCI   5
REDWOOD FALLS  CLOUDY    15  10  80 S9        30.25F WCI   3
MANKATO        PTCLDY    12   1  62 S9G16     30.30F WCI   0
FAIRMONT       CLEAR     12   9  85 S13       30.28F WCI  -3
$$

...SOUTHWEST WISCONSIN...


CITY           SKY/WX    TMP DP  RH WIND       PRES   REMARKS
LA CROSSE      PTCLDY    14   0  53 S7        30.42F WCI   4
PRAIRIE DU CHI MOCLDY    10  -1  63 E5        30.45F WCI   1
BOSCOBEL       PTCLDY    11   2  67 W5        30.45F WCI   3
LONE ROCK      NOT AVBL
PLATTEVILLE    PTCLDY    10   7  86 E3        30.42F
FORT MC COY    CLOUDY    13   2  60 S7        30.42F WCI   3
VIROQUA        CLOUDY    11   2  66 S8        30.38S WCI   0
WIS DELLS      NOT AVBL
$$

...ELSEWHERE IN WISCONSIN...


CITY           SKY/WX    TMP DP  RH WIND       PRES   REMARKS
MILWAUKEE      LGT SNOW  17  10  74 SW7       30.47F WCI   8
MADISON        LGT SNOW  14   8  77 S9        30.43F WCI   2
GREEN BAY      CLOUDY    15   2  56 S12       30.43F WCI   2
EAU CLAIRE     NOT AVBL
BLACK RVR FLS  CLOUDY    15  -1  49 S6        30.40S WCI   7
MEDFORD        CLOUDY    12  -1  55 S12       30.31F WCI  -2
WAUSAU         CLOUDY    14   0  53 S7        30.34F WCI   4
WIS RAPIDS     CLOUDY    14  -1  51 S10       30.40F WCI   1
MARSHFIELD     CLOUDY    13   0  56 S8        30.35F WCI   2
RICE LAKE      CLOUDY    12   1  61 S8        30.33F WCI   1
$$

...NORTHEAST IOWA...


CITY           SKY/WX    TMP DP  RH WIND       PRES   REMARKS
DECORAH        CLOUDY     7   0  72 S7        30.38F WCI  -5
MASON CITY     CLOUDY    11   8  88 S10       30.36F FOG     WCI  -3
CHARLES CITY   CLOUDY     9   5  85 SE8       30.39F WCI  -4
OELWEIN        CLOUDY     3   1  92 SE9       30.41S WCI -11
$$

...ELSEWHERE IN IOWA...


CITY           SKY/WX    TMP DP  RH WIND       PRES   REMARKS
DES MOINES     FLURRIES  21  17  84 SE7       30.38F WCI  12
IOWA CITY      CLOUDY    11   8  88 CALM      30.46S
FORT DODGE     CLOUDY    18  12  79 S7        30.35F WCI   8
$$

...NORTHERN ILLINOIS...


CITY           SKY/WX    TMP DP  RH WIND       PRES   REMARKS
CHICAGO-OHARE  FLURRIES  17  13  84 S7        30.47F WCI   8
CHICAGO-MIDWAY CLOUDY    20  14  77 SE7       30.48F WCI  11
MOLINE         MOCLDY     9   6  88 E6        30.44F FOG     WCI  -1
ROCKFORD       PTCLDY    13   9  84 SE5       30.46F WCI   5
PEORIA         LGT SNOW  22  17  81 SE6       30.46F WCI  14
$$

NOTE: "FAIR" INDICATES FEW OR NO CLOUDS BELOW 12,000 FEET WITH NO
SIGNIFICANT WEATHER AND/OR OBSTRUCTIONS TO VISIBILITY. WIND
SPEEDS ARE IN MILES-PER-HOUR.



USA.gov is the U.S. government's official web portal to all federal, state and local government web resources and services.